NKS525 KFLL-MDSD

Flight info

Callsign NKS525
Flight time 1h 43m
Altitude 39000
Route SNAPR2 SUMAC Y443 RUMFO Y441 JUELE UW38 PTA DCT KODIX KODIX2G
Aircraft A20N/M-SDE2E3FGHIRWXY/LB1

Departure

Time 2026-05-07 21:11
Airport Fort Lauderdale Hollywood International Airport (KFLL)

Arrival

Time 2026-05-07 22:54
Airport Las Américas International Airport (MDSD)
Time Latitude Longitude Altitude Speed Heading
2026-05-07 20:29 26.06880 -80.14254 19 ft 0 kts
2026-05-07 20:57 26.06875 -80.14254 19 ft 3 kts 358°
2026-05-07 20:57 26.06851 -80.14250 20 ft 3 kts 335°
2026-05-07 20:57 26.06832 -80.14236 22 ft 3 kts 310°
2026-05-07 20:57 26.06819 -80.14214 20 ft 4 kts 284°
2026-05-07 20:58 26.06817 -80.14199 20 ft 0 kts 270°
2026-05-07 21:01 26.06817 -80.14217 19 ft 4 kts 270°
2026-05-07 21:02 26.06817 -80.14267 19 ft 8 kts 270°
2026-05-07 21:02 26.06818 -80.14338 19 ft 9 kts 270°
2026-05-07 21:02 26.06818 -80.14406 19 ft 8 kts 270°
2026-05-07 21:02 26.06819 -80.14470 19 ft 8 kts 270°
2026-05-07 21:03 26.06819 -80.14531 19 ft 8 kts 271°
2026-05-07 21:03 26.06802 -80.14579 18 ft 6 kts 216°
2026-05-07 21:03 26.06768 -80.14607 18 ft 6 kts 244°
2026-05-07 21:03 26.06766 -80.14653 18 ft 7 kts 270°
2026-05-07 21:04 26.06766 -80.14715 18 ft 9 kts 270°
2026-05-07 21:04 26.06767 -80.14789 18 ft 10 kts 270°
2026-05-07 21:04 26.06767 -80.14874 18 ft 12 kts 269°
2026-05-07 21:04 26.06767 -80.14970 18 ft 13 kts 271°
2026-05-07 21:05 26.06768 -80.15075 19 ft 14 kts 270°
2026-05-07 21:05 26.06768 -80.15188 19 ft 15 kts 270°
2026-05-07 21:05 26.06769 -80.15311 19 ft 17 kts 271°
2026-05-07 21:05 26.06770 -80.15441 19 ft 15 kts 270°
2026-05-07 21:06 26.06761 -80.15521 19 ft 9 kts 231°
2026-05-07 21:06 26.06707 -80.15541 19 ft 7 kts 214°
2026-05-07 21:06 26.06697 -80.15588 19 ft 6 kts 271°
2026-05-07 21:06 26.06699 -80.15642 19 ft 8 kts 271°
2026-05-07 21:07 26.06698 -80.15715 19 ft 9 kts 270°
2026-05-07 21:07 26.06698 -80.15780 19 ft 9 kts 270°
2026-05-07 21:07 26.06680 -80.15816 20 ft 0 kts 211°
2026-05-07 21:09 26.06677 -80.15817 19 ft 1 kts 202°
2026-05-07 21:09 26.06662 -80.15821 20 ft 4 kts 192°
2026-05-07 21:09 26.06623 -80.15823 20 ft 7 kts 173°
2026-05-07 21:09 26.06589 -80.15794 23 ft 6 kts 108°
2026-05-07 21:10 26.06587 -80.15731 23 ft 14 kts 91°
2026-05-07 21:10 26.06587 -80.15414 25 ft 77 kts 90°
2026-05-07 21:10 26.06580 -80.14519 45 ft 152 kts 90°
2026-05-07 21:10 26.06585 -80.13205 447 ft 176 kts 94°
2026-05-07 21:11 26.06613 -80.11813 1108 ft 190 kts 91°
2026-05-07 21:11 26.06641 -80.10229 1567 ft 216 kts 90°
2026-05-07 21:11 26.06685 -80.06676 2491 ft 244 kts 90°
2026-05-07 21:12 26.06700 -80.04760 3038 ft 252 kts 89°
2026-05-07 21:12 26.06714 -80.02787 3592 ft 257 kts 89°
2026-05-07 21:12 26.06720 -80.00809 3958 ft 254 kts 89°
2026-05-07 21:12 26.06708 -79.98753 3993 ft 276 kts 90°
2026-05-07 21:13 26.06690 -79.96562 4477 ft 286 kts 90°
2026-05-07 21:13 26.06669 -79.94352 5334 ft 285 kts 90°
2026-05-07 21:13 26.06647 -79.92145 6141 ft 285 kts 90°
2026-05-07 21:13 26.06625 -79.89945 6925 ft 284 kts 90°
2026-05-07 21:14 26.06603 -79.87742 7621 ft 286 kts 90°
2026-05-07 21:14 26.06589 -79.86271 8059 ft 288 kts 90°
2026-05-07 21:14 26.06559 -79.84035 8756 ft 290 kts 92°
2026-05-07 21:14 26.06352 -79.81801 9464 ft 292 kts 98°
2026-05-07 21:15 26.05909 -79.78830 10260 ft 299 kts 99°
2026-05-07 21:15 26.05541 -79.76487 10512 ft 316 kts 99°
2026-05-07 21:15 26.05155 -79.74037 10938 ft 325 kts 99°
2026-05-07 21:15 26.04895 -79.72386 11325 ft 327 kts 99°
2026-05-07 21:16 26.04502 -79.69873 11913 ft 331 kts 99°
2026-05-07 21:16 26.04103 -79.67329 12484 ft 336 kts 99°
2026-05-07 21:16 26.03671 -79.64769 12889 ft 338 kts 102°
2026-05-07 21:16 26.03114 -79.62227 13253 ft 340 kts 104°
2026-05-07 21:17 26.02514 -79.59662 13847 ft 344 kts 104°
2026-05-07 21:17 26.01904 -79.57078 14432 ft 347 kts 104°
2026-05-07 21:17 26.01287 -79.54465 15003 ft 351 kts 104°
2026-05-07 21:17 26.00664 -79.51821 15567 ft 356 kts 104°
2026-05-07 21:18 26.00033 -79.49140 16141 ft 360 kts 104°
2026-05-07 21:18 25.99395 -79.46432 16719 ft 364 kts 104°
2026-05-07 21:18 25.98750 -79.43691 17259 ft 369 kts 104°
2026-05-07 21:18 25.98095 -79.40912 17816 ft 373 kts 103°
2026-05-07 21:19 25.97364 -79.38130 18352 ft 377 kts 108°
2026-05-07 21:19 25.96461 -79.35374 18830 ft 382 kts 110°
2026-05-07 21:19 25.95502 -79.32603 19304 ft 386 kts 110°
2026-05-07 21:19 25.94526 -79.29809 19782 ft 389 kts 111°
2026-05-07 21:20 25.93555 -79.27030 20260 ft 393 kts 111°
2026-05-07 21:20 25.92563 -79.24186 20737 ft 397 kts 111°
2026-05-07 21:20 25.91558 -79.21307 21217 ft 401 kts 111°
2026-05-07 21:20 25.90545 -79.18403 21693 ft 405 kts 111°
2026-05-07 21:21 25.89523 -79.15474 22174 ft 409 kts 111°
2026-05-07 21:21 25.88488 -79.12512 22642 ft 413 kts 111°
2026-05-07 21:21 25.87445 -79.09528 23107 ft 416 kts 111°
2026-05-07 21:21 25.86393 -79.06519 23559 ft 420 kts 111°
2026-05-07 21:22 25.85302 -79.03401 23957 ft 423 kts 111°
2026-05-07 21:22 25.84231 -79.00344 24343 ft 426 kts 111°
2026-05-07 21:22 25.83153 -78.97269 24761 ft 428 kts 111°
2026-05-07 21:22 25.82072 -78.94187 25150 ft 430 kts 111°
2026-05-07 21:23 25.80983 -78.91083 25510 ft 433 kts 111°
2026-05-07 21:23 25.79887 -78.87964 25877 ft 435 kts 111°
2026-05-07 21:23 25.78782 -78.84819 26235 ft 438 kts 111°
2026-05-07 21:23 25.77671 -78.81664 26590 ft 441 kts 111°
2026-05-07 21:24 25.76552 -78.78487 26938 ft 443 kts 111°
2026-05-07 21:24 25.75427 -78.75293 27268 ft 446 kts 111°
2026-05-07 21:24 25.74196 -78.72126 27617 ft 448 kts 117°
2026-05-07 21:24 25.72615 -78.69141 27941 ft 450 kts 123°
2026-05-07 21:25 25.70873 -78.66248 28266 ft 452 kts 124°
2026-05-07 21:25 25.69094 -78.63357 28576 ft 455 kts 125°
2026-05-07 21:25 25.67303 -78.60455 28894 ft 457 kts 125°
2026-05-07 21:25 25.65505 -78.57537 29199 ft 459 kts 124°
2026-05-07 21:26 25.63699 -78.54603 29500 ft 462 kts 124°
2026-05-07 21:26 25.61885 -78.51654 29792 ft 464 kts 124°
2026-05-07 21:26 25.60062 -78.48691 30079 ft 467 kts 124°
2026-05-07 21:26 25.58354 -78.45631 30320 ft 469 kts 117°
2026-05-07 21:27 25.57084 -78.42296 30597 ft 469 kts 107°
2026-05-07 21:27 25.56136 -78.38841 30946 ft 468 kts 105°
2026-05-07 21:27 25.55256 -78.35379 31295 ft 467 kts 104°
2026-05-07 21:27 25.54383 -78.31920 31632 ft 466 kts 104°
2026-05-07 21:28 25.53507 -78.28467 31950 ft 466 kts 105°
2026-05-07 21:28 25.52627 -78.25010 32278 ft 465 kts 105°
2026-05-07 21:28 25.51746 -78.21565 32599 ft 465 kts 105°
2026-05-07 21:28 25.50865 -78.18128 32920 ft 464 kts 105°
2026-05-07 21:29 25.49984 -78.14696 33213 ft 464 kts 105°
2026-05-07 21:29 25.49100 -78.11260 33500 ft 463 kts 105°
2026-05-07 21:29 25.48216 -78.07826 33781 ft 463 kts 105°
2026-05-07 21:29 25.47333 -78.04402 34059 ft 462 kts 105°
2026-05-07 21:30 25.46451 -78.00985 34295 ft 462 kts 105°
2026-05-07 21:30 25.45568 -77.97565 34515 ft 462 kts 105°
2026-05-07 21:30 25.44685 -77.94150 34770 ft 460 kts 104°
2026-05-07 21:30 25.43806 -77.90759 35083 ft 457 kts 104°
2026-05-07 21:31 25.42930 -77.87378 35304 ft 457 kts 105°
2026-05-07 21:31 25.42053 -77.83997 35480 ft 457 kts 105°
2026-05-07 21:31 25.41186 -77.80657 35667 ft 457 kts 105°
2026-05-07 21:31 25.40309 -77.77285 35849 ft 457 kts 105°
2026-05-07 21:32 25.39428 -77.73900 36034 ft 457 kts 105°
2026-05-07 21:32 25.38548 -77.70522 36200 ft 457 kts 105°
2026-05-07 21:32 25.37669 -77.67152 36370 ft 457 kts 105°
2026-05-07 21:32 25.36777 -77.63734 36548 ft 456 kts 105°
2026-05-07 21:33 25.35896 -77.60360 36716 ft 456 kts 105°
2026-05-07 21:33 25.35015 -77.56996 36897 ft 455 kts 104°
2026-05-07 21:33 25.34138 -77.53643 37091 ft 454 kts 104°
2026-05-07 21:33 25.33255 -77.50277 37246 ft 454 kts 104°
2026-05-07 21:34 25.32377 -77.46928 37374 ft 454 kts 104°
2026-05-07 21:34 25.31494 -77.43566 37467 ft 455 kts 104°
2026-05-07 21:34 25.29452 -77.36919 37603 ft 460 kts 116°
2026-05-07 21:35 25.27788 -77.33898 37637 ft 462 kts 128°
2026-05-07 21:35 25.25663 -77.31233 37681 ft 463 kts 135°
2026-05-07 21:35 25.21028 -77.26241 37766 ft 468 kts 138°
2026-05-07 21:36 25.16226 -77.21325 37858 ft 472 kts 138°
2026-05-07 21:36 25.11396 -77.16348 37942 ft 477 kts 137°
2026-05-07 21:37 25.06506 -77.11257 38028 ft 482 kts 137°
2026-05-07 21:37 25.01614 -77.06146 38127 ft 487 kts 137°
2026-05-07 21:38 24.96677 -77.00992 38213 ft 491 kts 137°
2026-05-07 21:38 24.91682 -76.95787 38296 ft 496 kts 137°
2026-05-07 21:39 24.86648 -76.90548 38482 ft 499 kts 137°
2026-05-07 21:39 24.84122 -76.87922 38607 ft 499 kts 137°
2026-05-07 21:39 24.81591 -76.85293 38750 ft 499 kts 137°
2026-05-07 21:40 24.79067 -76.82671 38875 ft 498 kts 137°
2026-05-07 21:40 24.76543 -76.80052 38987 ft 498 kts 137°
2026-05-07 21:40 24.71497 -76.74820 39029 ft 499 kts 137°
2026-05-07 21:41 24.66449 -76.69592 39031 ft 498 kts 137°
2026-05-07 21:41 24.61407 -76.64376 39032 ft 498 kts 137°
2026-05-07 21:42 24.56360 -76.59161 39031 ft 498 kts 137°
2026-05-07 21:42 24.51304 -76.53943 39032 ft 498 kts 137°
2026-05-07 21:43 24.46260 -76.48743 39036 ft 498 kts 137°
2026-05-07 21:43 24.41234 -76.43568 39034 ft 498 kts 137°
2026-05-07 21:44 24.36143 -76.38332 39030 ft 497 kts 137°
2026-05-07 21:44 24.31944 -76.34018 39034 ft 497 kts 137°
2026-05-07 21:45 24.26887 -76.28827 39034 ft 497 kts 137°
2026-05-07 21:45 24.21836 -76.23649 39034 ft 497 kts 137°
2026-05-07 21:46 24.16774 -76.18466 39034 ft 497 kts 137°
2026-05-07 21:46 24.11717 -76.13294 39041 ft 497 kts 137°
2026-05-07 21:47 24.06659 -76.08125 39035 ft 497 kts 137°
2026-05-07 21:47 24.01601 -76.02964 39035 ft 497 kts 137°
2026-05-07 21:48 23.96539 -75.97804 39032 ft 497 kts 137°
2026-05-07 21:48 23.91486 -75.92658 39035 ft 497 kts 137°
2026-05-07 21:49 23.86418 -75.87504 39033 ft 497 kts 137°
2026-05-07 21:49 23.81355 -75.82360 39031 ft 497 kts 137°
2026-05-07 21:50 23.76289 -75.77220 39036 ft 497 kts 137°
2026-05-07 21:50 23.71223 -75.72084 39023 ft 497 kts 137°
2026-05-07 21:51 23.66158 -75.66955 39031 ft 496 kts 137°
2026-05-07 21:51 23.61089 -75.61828 39034 ft 496 kts 137°
2026-05-07 21:52 23.56019 -75.56706 39032 ft 496 kts 137°
2026-05-07 21:52 23.50956 -75.51596 39032 ft 496 kts 137°
2026-05-07 21:53 23.45885 -75.46484 39034 ft 496 kts 137°
2026-05-07 21:53 23.40819 -75.41383 39035 ft 496 kts 137°
2026-05-07 21:54 23.35780 -75.36314 39029 ft 496 kts 137°
2026-05-07 21:54 23.30688 -75.31198 39032 ft 494 kts 137°
2026-05-07 21:55 23.25666 -75.26157 39031 ft 494 kts 137°
2026-05-07 21:55 23.20610 -75.21088 39031 ft 494 kts 137°
2026-05-07 21:56 23.15557 -75.16027 39029 ft 494 kts 137°
2026-05-07 21:56 23.10505 -75.10953 39027 ft 494 kts 134°
2026-05-07 21:57 23.06181 -75.05180 39033 ft 492 kts 125°
2026-05-07 21:57 23.02192 -74.99129 39026 ft 492 kts 123°
2026-05-07 21:58 22.98272 -74.93034 39029 ft 491 kts 123°
2026-05-07 21:58 22.94375 -74.86994 39028 ft 490 kts 123°
2026-05-07 21:59 22.90445 -74.80939 39028 ft 490 kts 123°
2026-05-07 21:59 22.86500 -74.74883 39029 ft 490 kts 123°
2026-05-07 22:00 22.82561 -74.68844 39031 ft 491 kts 123°
2026-05-07 22:00 22.78590 -74.62763 39032 ft 491 kts 123°
2026-05-07 22:01 22.74646 -74.56728 39028 ft 491 kts 123°
2026-05-07 22:01 22.70719 -74.50728 39026 ft 490 kts 124°
2026-05-07 22:02 22.66767 -74.44695 39025 ft 490 kts 124°
2026-05-07 22:02 22.62815 -74.38670 39026 ft 489 kts 123°
2026-05-07 22:03 22.58877 -74.32673 39028 ft 489 kts 123°
2026-05-07 22:03 22.54927 -74.26664 39026 ft 490 kts 123°
2026-05-07 22:04 22.50972 -74.20654 39026 ft 490 kts 123°
2026-05-07 22:04 22.47019 -74.14653 39025 ft 490 kts 123°
2026-05-07 22:05 22.43061 -74.08653 39026 ft 490 kts 123°
2026-05-07 22:05 22.39132 -74.02703 39025 ft 490 kts 124°
2026-05-07 22:06 22.35172 -73.96713 39027 ft 490 kts 123°
2026-05-07 22:06 22.31200 -73.90711 39029 ft 491 kts 123°
2026-05-07 22:07 22.27225 -73.84713 39025 ft 491 kts 123°
2026-05-07 22:07 22.23255 -73.78727 39029 ft 490 kts 123°
2026-05-07 22:08 22.19284 -73.72748 39029 ft 489 kts 123°
2026-05-07 22:08 22.15309 -73.66768 39029 ft 490 kts 124°
2026-05-07 22:09 22.11337 -73.60800 39029 ft 490 kts 123°
2026-05-07 22:09 22.07356 -73.54825 39029 ft 491 kts 123°
2026-05-07 22:10 22.03370 -73.48850 39029 ft 491 kts 123°
2026-05-07 22:10 21.99380 -73.42875 39028 ft 491 kts 123°
2026-05-07 22:11 21.95390 -73.36906 39026 ft 491 kts 123°
2026-05-07 22:11 21.91399 -73.30942 39023 ft 491 kts 124°
2026-05-07 22:12 21.87406 -73.24983 39026 ft 490 kts 123°
2026-05-07 22:12 21.83416 -73.19033 39023 ft 490 kts 123°
2026-05-07 22:13 21.79443 -73.13117 39023 ft 490 kts 123°
2026-05-07 22:13 21.75449 -73.07175 39023 ft 490 kts 123°
2026-05-07 22:14 21.71452 -73.01234 39023 ft 490 kts 123°
2026-05-07 22:14 21.67449 -72.95292 39023 ft 490 kts 123°
2026-05-07 22:15 21.63442 -72.89350 39023 ft 491 kts 123°
2026-05-07 22:15 21.59432 -72.83410 39025 ft 491 kts 123°
2026-05-07 22:16 21.55415 -72.77466 39023 ft 491 kts 123°
2026-05-07 22:16 21.51418 -72.71559 39020 ft 490 kts 123°
2026-05-07 22:17 21.47410 -72.65641 39019 ft 490 kts 123°
2026-05-07 22:17 21.43398 -72.59724 39027 ft 490 kts 123°
2026-05-07 22:18 21.37374 -72.50851 39020 ft 490 kts 123°
2026-05-07 22:19 21.33353 -72.44935 39020 ft 490 kts 123°
2026-05-07 22:19 21.29329 -72.39021 39020 ft 490 kts 123°
2026-05-07 22:20 21.25305 -72.33115 39023 ft 490 kts 123°
2026-05-07 22:20 21.21275 -72.27205 39020 ft 490 kts 123°
2026-05-07 22:21 21.17924 -72.22297 39022 ft 491 kts 123°
2026-05-07 22:21 21.13886 -72.16387 39020 ft 491 kts 123°
2026-05-07 22:22 21.09843 -72.10477 39020 ft 491 kts 123°
2026-05-07 22:22 21.05807 -72.04582 39017 ft 491 kts 123°
2026-05-07 22:23 21.01763 -71.98683 39017 ft 491 kts 123°
2026-05-07 22:23 20.97718 -71.92788 39017 ft 491 kts 123°
2026-05-07 22:24 20.93669 -71.86892 39016 ft 492 kts 123°
2026-05-07 22:24 20.89608 -71.80985 39015 ft 493 kts 123°
2026-05-07 22:25 20.85565 -71.75112 39015 ft 493 kts 123°
2026-05-07 22:25 20.81498 -71.69211 39016 ft 493 kts 123°
2026-05-07 22:26 20.77431 -71.63313 39008 ft 492 kts 123°
2026-05-07 22:26 20.73365 -71.57426 39012 ft 492 kts 123°
2026-05-07 22:27 20.69297 -71.51540 39015 ft 491 kts 123°
2026-05-07 22:27 20.65235 -71.45669 39015 ft 491 kts 123°
2026-05-07 22:28 20.61174 -71.39805 39015 ft 491 kts 123°
2026-05-07 22:28 20.57109 -71.33941 39015 ft 491 kts 123°
2026-05-07 22:29 20.53072 -71.28123 39012 ft 491 kts 123°
2026-05-07 22:29 20.49003 -71.22267 39012 ft 491 kts 123°
2026-05-07 22:30 20.44928 -71.16407 39012 ft 491 kts 123°
2026-05-07 22:30 20.40439 -71.10920 39018 ft 496 kts 136°
2026-05-07 22:31 20.35120 -71.06200 39012 ft 498 kts 139°
2026-05-07 22:31 20.29656 -71.01656 39012 ft 498 kts 140°
2026-05-07 22:32 20.24176 -70.97135 39016 ft 498 kts 139°
2026-05-07 22:32 20.18715 -70.92604 38642 ft 497 kts 139°
2026-05-07 22:32 20.15993 -70.90338 37997 ft 498 kts 139°
2026-05-07 22:33 20.13262 -70.88061 37349 ft 498 kts 139°
2026-05-07 22:33 20.10531 -70.85785 36725 ft 499 kts 139°
2026-05-07 22:33 20.07795 -70.83506 36094 ft 499 kts 139°
2026-05-07 22:33 20.05068 -70.81235 35487 ft 498 kts 139°
2026-05-07 22:34 20.02337 -70.78963 34901 ft 498 kts 140°
2026-05-07 22:34 19.99612 -70.76697 34330 ft 497 kts 140°
2026-05-07 22:34 19.96891 -70.74436 33725 ft 496 kts 140°
2026-05-07 22:34 19.94177 -70.72182 33079 ft 495 kts 140°
2026-05-07 22:35 19.91465 -70.69930 32442 ft 493 kts 140°
2026-05-07 22:35 19.88764 -70.67689 31832 ft 492 kts 140°
2026-05-07 22:35 19.86074 -70.65458 31233 ft 490 kts 140°
2026-05-07 22:35 19.83391 -70.63234 30646 ft 488 kts 140°
2026-05-07 22:36 19.80719 -70.61019 30071 ft 486 kts 140°
2026-05-07 22:36 19.78064 -70.58820 29386 ft 484 kts 140°
2026-05-07 22:36 19.75374 -70.56669 28755 ft 482 kts 143°
2026-05-07 22:36 19.72586 -70.54695 28116 ft 481 kts 144°
2026-05-07 22:37 19.69780 -70.52770 27498 ft 479 kts 144°
2026-05-07 22:37 19.66981 -70.50853 26848 ft 478 kts 144°
2026-05-07 22:37 19.64192 -70.48940 26196 ft 476 kts 144°
2026-05-07 22:37 19.61417 -70.47034 25566 ft 475 kts 144°
2026-05-07 22:38 19.58654 -70.45134 24950 ft 473 kts 144°
2026-05-07 22:38 19.55898 -70.43238 24352 ft 470 kts 144°
2026-05-07 22:38 19.53160 -70.41355 23764 ft 468 kts 144°
2026-05-07 22:38 19.50436 -70.39481 23101 ft 465 kts 144°
2026-05-07 22:39 19.47723 -70.37615 22404 ft 462 kts 144°
2026-05-07 22:39 19.45007 -70.35748 21737 ft 459 kts 145°
2026-05-07 22:39 19.42340 -70.33916 21068 ft 455 kts 145°
2026-05-07 22:39 19.39690 -70.32096 20430 ft 452 kts 145°
2026-05-07 22:40 19.37066 -70.30293 19796 ft 447 kts 145°
2026-05-07 22:40 19.34463 -70.28507 19191 ft 443 kts 146°
2026-05-07 22:40 19.31915 -70.26759 18590 ft 440 kts 146°
2026-05-07 22:40 19.29330 -70.24986 17936 ft 436 kts 146°
2026-05-07 22:41 19.26826 -70.23269 17262 ft 432 kts 146°
2026-05-07 22:41 19.24314 -70.21547 16590 ft 428 kts 146°
2026-05-07 22:41 19.21820 -70.19838 15944 ft 425 kts 146°
2026-05-07 22:41 19.19355 -70.18150 15400 ft 419 kts 146°
2026-05-07 22:42 19.16926 -70.16488 14886 ft 413 kts 146°
2026-05-07 22:42 19.14532 -70.14845 14382 ft 407 kts 146°
2026-05-07 22:42 19.12293 -70.13048 13885 ft 401 kts 140°
2026-05-07 22:42 19.10167 -70.11167 13337 ft 396 kts 139°
2026-05-07 22:43 19.08077 -70.09290 12782 ft 391 kts 139°
2026-05-07 22:43 19.06011 -70.07435 12240 ft 387 kts 139°
2026-05-07 22:43 19.03965 -70.05602 11733 ft 382 kts 139°
2026-05-07 22:43 19.01944 -70.03794 11232 ft 377 kts 139°
2026-05-07 22:44 18.99952 -70.02015 10743 ft 373 kts 139°
2026-05-07 22:44 18.97982 -70.00257 10259 ft 368 kts 139°
2026-05-07 22:44 18.96038 -69.98523 9766 ft 363 kts 139°
2026-05-07 22:44 18.94119 -69.96813 9251 ft 357 kts 139°
2026-05-07 22:45 18.92249 -69.95148 9043 ft 343 kts 139°
2026-05-07 22:45 18.90370 -69.93689 8949 ft 327 kts 146°
2026-05-07 22:45 18.88493 -69.92403 8593 ft 320 kts 147°
2026-05-07 22:45 18.86624 -69.91154 8090 ft 313 kts 147°
2026-05-07 22:46 18.84824 -69.89956 7746 ft 300 kts 147°
2026-05-07 22:46 18.83115 -69.88814 7428 ft 288 kts 146°
2026-05-07 22:46 18.81447 -69.87698 7105 ft 279 kts 147°
2026-05-07 22:46 18.79836 -69.86618 6778 ft 270 kts 146°
2026-05-07 22:47 18.78272 -69.85569 6462 ft 263 kts 147°
2026-05-07 22:47 18.76731 -69.84536 6133 ft 262 kts 147°
2026-05-07 22:47 18.75192 -69.83504 5873 ft 262 kts 146°
2026-05-07 22:47 18.73660 -69.82477 5621 ft 260 kts 147°
2026-05-07 22:48 18.72140 -69.81459 5307 ft 258 kts 146°
2026-05-07 22:48 18.70630 -69.80448 4994 ft 256 kts 146°
2026-05-07 22:48 18.69136 -69.79447 4687 ft 253 kts 146°
2026-05-07 22:48 18.67655 -69.78456 4366 ft 251 kts 146°
2026-05-07 22:49 18.66189 -69.77474 4056 ft 249 kts 145°
2026-05-07 22:49 18.64731 -69.76498 3743 ft 247 kts 146°
2026-05-07 22:49 18.63284 -69.75529 3425 ft 245 kts 146°
2026-05-07 22:49 18.61847 -69.74568 3144 ft 242 kts 147°
2026-05-07 22:50 18.60467 -69.73671 3046 ft 221 kts 150°
2026-05-07 22:50 18.59136 -69.73054 3020 ft 198 kts 157°
2026-05-07 22:50 18.57882 -69.72602 2814 ft 185 kts 160°
2026-05-07 22:50 18.56661 -69.72115 2588 ft 193 kts 155°
2026-05-07 22:51 18.55406 -69.71549 2402 ft 191 kts 155°
2026-05-07 22:51 18.54236 -69.71044 2098 ft 174 kts 156°
2026-05-07 22:51 18.53076 -69.70590 1934 ft 188 kts 159°
2026-05-07 22:51 18.51790 -69.70120 1657 ft 201 kts 159°
2026-05-07 22:52 18.50466 -69.69654 1295 ft 193 kts 160°
2026-05-07 22:52 18.49258 -69.69195 1010 ft 176 kts 159°
2026-05-07 22:52 18.48137 -69.68769 860 ft 166 kts 159°
2026-05-07 22:52 18.47055 -69.68392 618 ft 164 kts 161°
2026-05-07 22:53 18.45954 -69.67992 407 ft 170 kts 159°
2026-05-07 22:53 18.44810 -69.67573 228 ft 178 kts 160°
2026-05-07 22:53 18.43623 -69.67131 86 ft 175 kts 161°
2026-05-07 22:53 18.42629 -69.66765 69 ft 112 kts 161°
2026-05-07 22:54 18.42171 -69.66596 64 ft 29 kts 160°
2026-05-07 22:54 18.42065 -69.66557 67 ft 19 kts 161°
2026-05-07 22:54 18.41899 -69.66498 65 ft 31 kts 161°
2026-05-07 22:54 18.41699 -69.66425 72 ft 28 kts 159°
2026-05-07 22:55 18.41618 -69.66409 69 ft 1 kts 189°
2026-05-07 22:55 18.41607 -69.66411 66 ft 7 kts 189°
2026-05-07 22:55 18.41540 -69.66448 68 ft 12 kts 253°
2026-05-07 22:55 18.41560 -69.66527 69 ft 11 kts 299°
2026-05-07 22:56 18.41602 -69.66585 74 ft 10 kts 329°
2026-05-07 22:56 18.41694 -69.66621 73 ft 18 kts 342°
2026-05-07 22:56 18.41787 -69.66656 73 ft 23 kts 340°
2026-05-07 22:56 18.41962 -69.66722 71 ft 30 kts 340°
2026-05-07 22:57 18.42176 -69.66799 65 ft 35 kts 342°
2026-05-07 22:57 18.42422 -69.66890 61 ft 40 kts 340°
2026-05-07 22:57 18.42688 -69.66987 70 ft 41 kts 341°
2026-05-07 22:57 18.42909 -69.67068 70 ft 11 kts 340°
2026-05-07 22:58 18.42948 -69.67105 69 ft 8 kts 287°
2026-05-07 22:58 18.42954 -69.67184 67 ft 14 kts 274°
2026-05-07 22:58 18.42964 -69.67291 64 ft 15 kts 276°
2026-05-07 22:58 18.42989 -69.67388 57 ft 13 kts 310°
2026-05-07 22:59 18.43052 -69.67436 63 ft 7 kts 332°
2026-05-07 22:59 18.43081 -69.67465 62 ft 4 kts 301°
2026-05-07 22:59 18.43090 -69.67486 67 ft 4 kts 292°
2026-05-07 22:59 18.43103 -69.67524 66 ft 6 kts 289°
2026-05-07 23:00 18.43113 -69.67554 70 ft 0 kts 290°